DLH2HK EDDF-LGAV

Flight info

Callsign DLH2HK
Flight time 2h 16m
Altitude 37000
Route CINDY8S/18 CINDY Z74 LAMPU DCT NOMBO Y161 MAH L173 OTT M867 RADIZ DCT NEMEK DCT GLOMY DCT INLOT DCT PINDO UL607 XORKI
Aircraft A320/M-SDE3FGHIRWY/LB1

Departure

Time 2026-05-05 16:14
Airport Frankfurt Main Airport (EDDF)

Arrival

Time 2026-05-05 18:30
Airport Athens Eleftherios Venizelos International Airport (LGAV)
Time Latitude Longitude Altitude Speed Heading
2026-05-05 15:39 50.04466 8.56485 356 ft 0 kts 159°
2026-05-05 16:03 50.04480 8.56476 363 ft 4 kts 159°
2026-05-05 16:03 50.04506 8.56462 360 ft 4 kts 167°
2026-05-05 16:03 50.04530 8.56460 362 ft 4 kts 213°
2026-05-05 16:04 50.04535 8.56459 361 ft 4 kts 249°
2026-05-05 16:04 50.04526 8.56420 358 ft 4 kts 249°
2026-05-05 16:04 50.04517 8.56383 356 ft 2 kts 249°
2026-05-05 16:04 50.04516 8.56382 356 ft 0 kts 249°
2026-05-05 16:07 50.04505 8.56334 360 ft 7 kts 249°
2026-05-05 16:07 50.04481 8.56238 363 ft 10 kts 250°
2026-05-05 16:07 50.04456 8.56128 364 ft 11 kts 250°
2026-05-05 16:07 50.04415 8.56035 356 ft 11 kts 208°
2026-05-05 16:08 50.04334 8.56060 360 ft 13 kts 159°
2026-05-05 16:08 50.04254 8.55996 359 ft 18 kts 248°
2026-05-05 16:08 50.04202 8.55781 357 ft 24 kts 249°
2026-05-05 16:08 50.04146 8.55547 354 ft 22 kts 249°
2026-05-05 16:09 50.04094 8.55333 361 ft 20 kts 249°
2026-05-05 16:09 50.04049 8.55145 360 ft 18 kts 250°
2026-05-05 16:09 50.04001 8.54940 355 ft 21 kts 250°
2026-05-05 16:09 50.03948 8.54718 355 ft 23 kts 250°
2026-05-05 16:10 50.03891 8.54482 352 ft 24 kts 249°
2026-05-05 16:10 50.03817 8.54273 348 ft 21 kts 237°
2026-05-05 16:10 50.03759 8.54047 347 ft 27 kts 250°
2026-05-05 16:10 50.03692 8.53773 352 ft 27 kts 249°
2026-05-05 16:11 50.03625 8.53504 339 ft 27 kts 248°
2026-05-05 16:11 50.03445 8.52777 333 ft 17 kts 250°
2026-05-05 16:12 50.03432 8.52723 331 ft 0 kts 250°
2026-05-05 16:13 50.03355 8.52593 334 ft 9 kts 180°
2026-05-05 16:13 50.03203 8.52593 334 ft 51 kts 179°
2026-05-05 16:13 50.02622 8.52601 334 ft 113 kts 180°
2026-05-05 16:14 50.00519 8.52629 917 ft 162 kts 180°
2026-05-05 16:14 49.98166 8.52654 2079 ft 186 kts 182°
2026-05-05 16:15 49.95790 8.54921 2885 ft 237 kts 121°
2026-05-05 16:15 49.94253 8.59467 4674 ft 242 kts 110°
2026-05-05 16:16 49.93848 8.65049 5780 ft 276 kts 96°
2026-05-05 16:16 49.92499 8.70569 7403 ft 278 kts 132°
2026-05-05 16:17 49.89485 8.74302 9128 ft 280 kts 142°
2026-05-05 16:17 49.88128 8.76497 9952 ft 285 kts 127°
2026-05-05 16:18 49.85994 8.82159 10589 ft 328 kts 121°
2026-05-05 16:18 49.84844 8.85349 10789 ft 348 kts 121°
2026-05-05 16:18 49.82436 8.92032 12015 ft 360 kts 121°
2026-05-05 16:19 49.81205 8.95434 12723 ft 364 kts 121°
2026-05-05 16:19 49.79957 8.98864 13421 ft 367 kts 121°
2026-05-05 16:19 49.77427 9.05803 14645 ft 374 kts 121°
2026-05-05 16:20 49.75526 9.13361 15801 ft 383 kts 106°
2026-05-05 16:20 49.73382 9.20865 16913 ft 384 kts 127°
2026-05-05 16:21 49.69905 9.27192 18068 ft 389 kts 133°
2026-05-05 16:22 49.64498 9.36726 19526 ft 397 kts 133°
2026-05-05 16:22 49.60534 9.42604 20428 ft 400 kts 147°
2026-05-05 16:23 49.55711 9.47068 21311 ft 404 kts 150°
2026-05-05 16:23 49.53317 9.49244 21766 ft 406 kts 150°
2026-05-05 16:23 49.48420 9.53705 22651 ft 411 kts 150°
2026-05-05 16:24 49.45919 9.55983 23073 ft 414 kts 150°
2026-05-05 16:24 49.43469 9.58212 23461 ft 416 kts 150°
2026-05-05 16:24 49.38459 9.62755 24168 ft 420 kts 150°
2026-05-05 16:25 49.35937 9.65041 24531 ft 421 kts 149°
2026-05-05 16:25 49.31406 9.70779 25251 ft 426 kts 136°
2026-05-05 16:25 49.29311 9.74002 25629 ft 428 kts 136°
2026-05-05 16:26 49.25080 9.80466 26342 ft 431 kts 136°
2026-05-05 16:26 49.20803 9.86963 26994 ft 435 kts 137°
2026-05-05 16:27 49.18647 9.90232 27298 ft 437 kts 137°
2026-05-05 16:27 49.16487 9.93505 27561 ft 438 kts 137°
2026-05-05 16:27 49.14315 9.96791 27865 ft 440 kts 137°
2026-05-05 16:27 49.12138 10.00081 28186 ft 441 kts 137°
2026-05-05 16:28 49.09958 10.03369 28599 ft 440 kts 137°
2026-05-05 16:28 49.07785 10.06640 29058 ft 438 kts 137°
2026-05-05 16:28 49.05622 10.09888 29544 ft 435 kts 138°
2026-05-05 16:28 49.03444 10.13066 29998 ft 433 kts 139°
2026-05-05 16:29 49.01247 10.16181 30371 ft 431 kts 139°
2026-05-05 16:29 48.99785 10.18224 30577 ft 430 kts 140°
2026-05-05 16:29 48.97581 10.21288 30928 ft 429 kts 140°
2026-05-05 16:29 48.95382 10.24346 31286 ft 428 kts 140°
2026-05-05 16:30 48.93192 10.27410 31633 ft 427 kts 140°
2026-05-05 16:30 48.91009 10.30476 31987 ft 427 kts 140°
2026-05-05 16:30 48.88832 10.33543 32339 ft 427 kts 140°
2026-05-05 16:30 48.86661 10.36607 32676 ft 426 kts 140°
2026-05-05 16:31 48.84491 10.39668 33026 ft 426 kts 140°
2026-05-05 16:31 48.82329 10.42737 33352 ft 426 kts 139°
2026-05-05 16:31 48.80224 10.45918 33582 ft 429 kts 137°
2026-05-05 16:31 48.78166 10.49208 33848 ft 430 kts 136°
2026-05-05 16:32 48.76138 10.52544 34066 ft 431 kts 136°
2026-05-05 16:32 48.74111 10.55899 34261 ft 433 kts 136°
2026-05-05 16:32 48.72067 10.59254 34474 ft 434 kts 137°
2026-05-05 16:32 48.70007 10.62589 34698 ft 434 kts 137°
2026-05-05 16:33 48.67929 10.65912 34936 ft 434 kts 137°
2026-05-05 16:33 48.65844 10.69218 35168 ft 435 kts 137°
2026-05-05 16:33 48.63751 10.72522 35401 ft 435 kts 137°
2026-05-05 16:33 48.61657 10.75826 35651 ft 435 kts 137°
2026-05-05 16:34 48.59563 10.79133 35873 ft 436 kts 138°
2026-05-05 16:34 48.57471 10.82443 36084 ft 436 kts 137°
2026-05-05 16:34 48.55380 10.85774 36242 ft 437 kts 138°
2026-05-05 16:34 48.53289 10.89118 36372 ft 439 kts 138°
2026-05-05 16:35 48.51191 10.92476 36527 ft 440 kts 138°
2026-05-05 16:35 48.49090 10.95838 36712 ft 441 kts 138°
2026-05-05 16:35 48.46977 10.99192 36823 ft 442 kts 138°
2026-05-05 16:35 48.44841 11.02546 36839 ft 444 kts 139°
2026-05-05 16:36 48.40539 11.09225 36837 ft 444 kts 139°
2026-05-05 16:36 48.36233 11.15898 36834 ft 444 kts 139°
2026-05-05 16:37 48.31922 11.22558 36831 ft 444 kts 139°
2026-05-05 16:37 48.27805 11.29544 36834 ft 453 kts 127°
2026-05-05 16:38 48.25203 11.38223 36832 ft 464 kts 108°
2026-05-05 16:38 48.23683 11.47640 36824 ft 464 kts 108°
2026-05-05 16:39 48.22135 11.57043 36805 ft 465 kts 108°
2026-05-05 16:39 48.20569 11.66450 36793 ft 465 kts 108°
2026-05-05 16:40 48.18897 11.75799 36789 ft 462 kts 114°
2026-05-05 16:40 48.15835 11.84099 36793 ft 451 kts 133°
2026-05-05 16:41 48.11458 11.90687 36786 ft 446 kts 142°
2026-05-05 16:41 48.06886 11.96961 36784 ft 446 kts 142°
2026-05-05 16:42 48.02328 12.03251 36754 ft 447 kts 141°
2026-05-05 16:42 47.97743 12.09540 36753 ft 448 kts 142°
2026-05-05 16:43 47.93132 12.15818 36753 ft 449 kts 142°
2026-05-05 16:43 47.88422 12.21918 36755 ft 449 kts 144°
2026-05-05 16:44 47.83615 12.27846 36750 ft 449 kts 145°
2026-05-05 16:44 47.78806 12.33766 36753 ft 449 kts 144°
2026-05-05 16:45 47.74022 12.39739 36739 ft 449 kts 144°
2026-05-05 16:45 47.69236 12.45725 36744 ft 450 kts 144°
2026-05-05 16:46 47.64427 12.51667 36748 ft 450 kts 145°
2026-05-05 16:46 47.59664 12.57725 36765 ft 453 kts 141°
2026-05-05 16:47 47.55132 12.64223 36754 ft 454 kts 139°
2026-05-05 16:47 47.50663 12.70806 36763 ft 453 kts 140°
2026-05-05 16:48 47.46125 12.77287 36773 ft 454 kts 140°
2026-05-05 16:48 47.41538 12.83687 36791 ft 454 kts 141°
2026-05-05 16:49 47.36937 12.90073 36801 ft 454 kts 141°
2026-05-05 16:49 47.32351 12.96476 36788 ft 454 kts 140°
2026-05-05 16:50 47.27765 13.02887 36821 ft 455 kts 140°
2026-05-05 16:50 47.23173 13.09300 36815 ft 455 kts 140°
2026-05-05 16:51 47.18567 13.15702 36856 ft 456 kts 140°
2026-05-05 16:51 47.13946 13.22083 36859 ft 456 kts 140°
2026-05-05 16:52 47.09331 13.28451 36870 ft 456 kts 140°
2026-05-05 16:52 47.04712 13.34826 36874 ft 456 kts 140°
2026-05-05 16:53 47.00091 13.41189 36909 ft 456 kts 140°
2026-05-05 16:53 46.95466 13.47535 36909 ft 455 kts 141°
2026-05-05 16:54 46.90836 13.53850 36942 ft 456 kts 141°
2026-05-05 16:54 46.86187 13.60171 36928 ft 456 kts 140°
2026-05-05 16:55 46.81539 13.66503 36929 ft 457 kts 140°
2026-05-05 16:55 46.76885 13.72836 36943 ft 457 kts 140°
2026-05-05 16:56 46.72222 13.79141 36942 ft 458 kts 141°
2026-05-05 16:56 46.67549 13.85446 36969 ft 458 kts 141°
2026-05-05 16:57 46.62875 13.91748 36949 ft 458 kts 141°
2026-05-05 16:57 46.58198 13.98032 36962 ft 458 kts 141°
2026-05-05 16:58 46.53518 14.04315 36968 ft 458 kts 141°
2026-05-05 16:58 46.48833 14.10586 36956 ft 458 kts 141°
2026-05-05 16:59 46.44149 14.16833 36956 ft 457 kts 141°
2026-05-05 16:59 46.39454 14.23075 36975 ft 458 kts 141°
2026-05-05 17:00 46.34754 14.29315 36982 ft 458 kts 141°
2026-05-05 17:00 46.30082 14.35503 36989 ft 459 kts 141°
2026-05-05 17:01 46.25368 14.41721 36994 ft 459 kts 141°
2026-05-05 17:01 46.20658 14.47931 36999 ft 459 kts 141°
2026-05-05 17:02 46.15945 14.54139 36983 ft 459 kts 141°
2026-05-05 17:02 46.11218 14.60350 36982 ft 460 kts 141°
2026-05-05 17:03 46.06473 14.66550 36981 ft 461 kts 141°
2026-05-05 17:03 46.01724 14.72749 36980 ft 461 kts 141°
2026-05-05 17:04 45.96972 14.78935 36974 ft 461 kts 141°
2026-05-05 17:04 45.92213 14.85116 36971 ft 461 kts 141°
2026-05-05 17:05 45.87445 14.91287 36970 ft 462 kts 141°
2026-05-05 17:05 45.82674 14.97458 36967 ft 462 kts 141°
2026-05-05 17:06 45.77896 15.03626 36975 ft 462 kts 141°
2026-05-05 17:06 45.73110 15.09771 36965 ft 463 kts 141°
2026-05-05 17:07 45.68313 15.15922 36963 ft 463 kts 141°
2026-05-05 17:07 45.63508 15.22081 36956 ft 464 kts 141°
2026-05-05 17:08 45.58690 15.28245 36962 ft 465 kts 142°
2026-05-05 17:08 45.53833 15.34342 36964 ft 465 kts 143°
2026-05-05 17:09 45.48917 15.40340 36975 ft 465 kts 143°
2026-05-05 17:09 45.43994 15.46320 36983 ft 465 kts 143°
2026-05-05 17:10 45.39885 15.51340 36989 ft 464 kts 142°
2026-05-05 17:10 45.34986 15.57324 36988 ft 464 kts 143°
2026-05-05 17:11 45.30113 15.63257 36992 ft 464 kts 143°
2026-05-05 17:11 45.25200 15.69218 36967 ft 465 kts 143°
2026-05-05 17:12 45.20274 15.75170 36989 ft 466 kts 143°
2026-05-05 17:12 45.15338 15.81124 36989 ft 466 kts 143°
2026-05-05 17:13 45.10405 15.87074 37000 ft 466 kts 143°
2026-05-05 17:13 45.05467 15.93011 37003 ft 466 kts 143°
2026-05-05 17:14 45.00518 15.98944 36985 ft 467 kts 143°
2026-05-05 17:14 44.95558 16.04877 36985 ft 467 kts 143°
2026-05-05 17:15 44.90591 16.10803 36991 ft 467 kts 143°
2026-05-05 17:15 44.85621 16.16718 36995 ft 468 kts 143°
2026-05-05 17:16 44.80646 16.22636 36977 ft 468 kts 143°
2026-05-05 17:16 44.75660 16.28545 36986 ft 469 kts 143°
2026-05-05 17:17 44.70665 16.34446 36996 ft 469 kts 143°
2026-05-05 17:17 44.65663 16.40343 37005 ft 469 kts 143°
2026-05-05 17:18 44.60662 16.46232 36998 ft 469 kts 143°
2026-05-05 17:18 44.55649 16.52126 36993 ft 471 kts 143°
2026-05-05 17:19 44.50621 16.58002 37004 ft 471 kts 143°
2026-05-05 17:19 44.45590 16.63872 37019 ft 471 kts 143°
2026-05-05 17:20 44.40562 16.69742 37030 ft 471 kts 143°
2026-05-05 17:20 44.35528 16.75605 37033 ft 472 kts 143°
2026-05-05 17:21 44.30480 16.81464 37017 ft 472 kts 143°
2026-05-05 17:22 44.22884 16.90245 37038 ft 473 kts 143°
2026-05-05 17:22 44.17808 16.96089 37068 ft 474 kts 143°
2026-05-05 17:23 44.12725 17.01954 37048 ft 475 kts 143°
2026-05-05 17:23 44.07626 17.07819 37039 ft 476 kts 143°
2026-05-05 17:24 44.02516 17.13676 37049 ft 476 kts 143°
2026-05-05 17:24 43.97401 17.19510 37063 ft 476 kts 144°
2026-05-05 17:25 43.92314 17.25305 37061 ft 477 kts 144°
2026-05-05 17:25 43.87150 17.31182 37064 ft 478 kts 144°
2026-05-05 17:26 43.82013 17.37023 37059 ft 478 kts 144°
2026-05-05 17:26 43.76875 17.42852 37074 ft 477 kts 144°
2026-05-05 17:27 43.71733 17.48664 37072 ft 478 kts 144°
2026-05-05 17:27 43.66609 17.54438 37073 ft 478 kts 144°
2026-05-05 17:28 43.61446 17.60245 37068 ft 479 kts 144°
2026-05-05 17:28 43.56280 17.66040 37074 ft 479 kts 144°
2026-05-05 17:29 43.51159 17.71906 37077 ft 479 kts 143°
2026-05-05 17:29 43.46096 17.77890 37085 ft 480 kts 142°
2026-05-05 17:30 43.41022 17.83874 37074 ft 480 kts 142°
2026-05-05 17:30 43.35918 17.89817 37076 ft 481 kts 143°
2026-05-05 17:31 43.30799 17.95742 37078 ft 481 kts 143°
2026-05-05 17:31 43.25675 18.01662 37082 ft 482 kts 143°
2026-05-05 17:32 43.20548 18.07580 37089 ft 482 kts 143°
2026-05-05 17:32 43.15418 18.13493 37080 ft 482 kts 143°
2026-05-05 17:33 43.10285 18.19391 37092 ft 482 kts 143°
2026-05-05 17:33 43.05145 18.25286 37097 ft 482 kts 143°
2026-05-05 17:34 43.00003 18.31170 37096 ft 482 kts 143°
2026-05-05 17:34 42.94865 18.37048 37102 ft 482 kts 143°
2026-05-05 17:35 42.89717 18.42914 37104 ft 482 kts 143°
2026-05-05 17:35 42.84561 18.48775 37098 ft 483 kts 143°
2026-05-05 17:36 42.79390 18.54645 37093 ft 484 kts 143°
2026-05-05 17:36 42.74206 18.60508 37091 ft 485 kts 143°
2026-05-05 17:37 42.69019 18.66370 37100 ft 485 kts 143°
2026-05-05 17:37 42.63818 18.72220 37095 ft 485 kts 143°
2026-05-05 17:38 42.58612 18.78062 37114 ft 486 kts 143°
2026-05-05 17:38 42.53404 18.83905 37097 ft 486 kts 143°
2026-05-05 17:39 42.48184 18.89752 37089 ft 487 kts 143°
2026-05-05 17:39 42.42961 18.95598 37087 ft 487 kts 143°
2026-05-05 17:40 42.37732 19.01437 37085 ft 487 kts 143°
2026-05-05 17:40 42.32493 19.07255 37088 ft 488 kts 143°
2026-05-05 17:41 42.27246 19.13063 37096 ft 488 kts 143°
2026-05-05 17:41 42.21989 19.18874 37075 ft 489 kts 143°
2026-05-05 17:42 42.16730 19.24691 37059 ft 489 kts 143°
2026-05-05 17:42 42.11459 19.30506 37064 ft 490 kts 143°
2026-05-05 17:43 42.06177 19.36309 37083 ft 490 kts 143°
2026-05-05 17:43 42.00885 19.42105 37087 ft 491 kts 143°
2026-05-05 17:44 41.95570 19.47859 37099 ft 490 kts 144°
2026-05-05 17:44 41.90156 19.53443 37084 ft 491 kts 145°
2026-05-05 17:45 41.84703 19.58973 37091 ft 492 kts 145°
2026-05-05 17:45 41.79256 19.64537 37095 ft 492 kts 145°
2026-05-05 17:46 41.73818 19.70118 37098 ft 493 kts 145°
2026-05-05 17:46 41.68373 19.75687 37090 ft 493 kts 145°
2026-05-05 17:47 41.62915 19.81242 37111 ft 494 kts 145°
2026-05-05 17:47 41.57488 19.86769 37102 ft 494 kts 144°
2026-05-05 17:48 41.52016 19.92320 37103 ft 494 kts 145°
2026-05-05 17:48 41.46532 19.97869 37112 ft 495 kts 145°
2026-05-05 17:49 41.41039 20.03421 37104 ft 496 kts 145°
2026-05-05 17:49 41.35540 20.08970 37113 ft 496 kts 145°
2026-05-05 17:50 41.30040 20.14507 37134 ft 496 kts 144°
2026-05-05 17:50 41.24535 20.20033 37126 ft 497 kts 145°
2026-05-05 17:51 41.19015 20.25573 37107 ft 497 kts 144°
2026-05-05 17:51 41.13483 20.31093 37115 ft 498 kts 144°
2026-05-05 17:52 41.07938 20.36615 37118 ft 499 kts 144°
2026-05-05 17:52 41.02400 20.42141 37124 ft 499 kts 144°
2026-05-05 17:53 40.96851 20.47658 37135 ft 499 kts 144°
2026-05-05 17:53 40.92194 20.52275 37130 ft 500 kts 144°
2026-05-05 17:54 40.86623 20.57782 37122 ft 500 kts 144°
2026-05-05 17:54 40.81043 20.63286 37115 ft 501 kts 144°
2026-05-05 17:55 40.75456 20.68789 37123 ft 501 kts 144°
2026-05-05 17:55 40.69870 20.74285 37107 ft 501 kts 144°
2026-05-05 17:56 40.64273 20.79758 37117 ft 501 kts 144°
2026-05-05 17:56 40.58669 20.85230 37123 ft 502 kts 144°
2026-05-05 17:57 40.53064 20.90722 37110 ft 503 kts 144°
2026-05-05 17:57 40.47585 20.96337 37111 ft 504 kts 140°
2026-05-05 17:58 40.42352 21.02457 37103 ft 504 kts 137°
2026-05-05 17:58 40.37153 21.08712 37114 ft 503 kts 138°
2026-05-05 17:59 40.31958 21.14770 37116 ft 503 kts 139°
2026-05-05 17:59 40.26670 21.20786 37111 ft 504 kts 140°
2026-05-05 18:00 40.21358 21.26789 37106 ft 505 kts 139°
2026-05-05 18:00 40.16065 21.32821 37088 ft 505 kts 139°
2026-05-05 18:01 40.10777 21.38864 37098 ft 505 kts 139°
2026-05-05 18:01 40.05474 21.44886 37095 ft 505 kts 139°
2026-05-05 18:01 40.02819 21.47891 36893 ft 505 kts 140°
2026-05-05 18:02 40.00164 21.50892 36590 ft 505 kts 140°
2026-05-05 18:02 39.97508 21.53893 36300 ft 506 kts 140°
2026-05-05 18:02 39.94845 21.56899 36017 ft 507 kts 140°
2026-05-05 18:02 39.92171 21.59907 35732 ft 509 kts 140°
2026-05-05 18:03 39.89488 21.62925 35457 ft 511 kts 140°
2026-05-05 18:03 39.86797 21.65948 35186 ft 512 kts 140°
2026-05-05 18:03 39.84093 21.68988 34915 ft 514 kts 140°
2026-05-05 18:03 39.81386 21.72035 34648 ft 515 kts 140°
2026-05-05 18:04 39.78671 21.75087 34392 ft 517 kts 140°
2026-05-05 18:04 39.75945 21.78151 34120 ft 519 kts 140°
2026-05-05 18:04 39.73214 21.81222 33821 ft 521 kts 140°
2026-05-05 18:04 39.70460 21.84308 33520 ft 524 kts 140°
2026-05-05 18:05 39.67697 21.87396 33231 ft 524 kts 140°
2026-05-05 18:05 39.64929 21.90482 32931 ft 525 kts 140°
2026-05-05 18:05 39.62161 21.93563 32624 ft 524 kts 140°
2026-05-05 18:05 39.59393 21.96639 32337 ft 524 kts 140°
2026-05-05 18:06 39.56622 21.99716 32054 ft 524 kts 140°
2026-05-05 18:06 39.54789 22.01752 31866 ft 524 kts 140°
2026-05-05 18:06 39.51086 22.05863 31495 ft 524 kts 140°
2026-05-05 18:06 39.48321 22.08933 31214 ft 524 kts 140°
2026-05-05 18:07 39.45557 22.12003 30939 ft 524 kts 140°
2026-05-05 18:07 39.42791 22.15071 30684 ft 523 kts 140°
2026-05-05 18:07 39.40032 22.18124 30416 ft 522 kts 140°
2026-05-05 18:07 39.37272 22.21168 30111 ft 522 kts 140°
2026-05-05 18:08 39.34508 22.24209 29754 ft 522 kts 140°
2026-05-05 18:08 39.31740 22.27257 29399 ft 523 kts 140°
2026-05-05 18:08 39.28978 22.30303 29043 ft 522 kts 140°
2026-05-05 18:08 39.26212 22.33349 28685 ft 522 kts 140°
2026-05-05 18:09 39.23448 22.36385 28324 ft 522 kts 140°
2026-05-05 18:09 39.20684 22.39416 27995 ft 522 kts 140°
2026-05-05 18:09 39.17920 22.42445 27652 ft 521 kts 140°
2026-05-05 18:09 39.15156 22.45469 27310 ft 521 kts 140°
2026-05-05 18:10 39.12391 22.48490 26993 ft 521 kts 140°
2026-05-05 18:10 39.09661 22.51469 26661 ft 521 kts 140°
2026-05-05 18:10 39.06894 22.54483 26344 ft 521 kts 140°
2026-05-05 18:10 39.04136 22.57486 26024 ft 518 kts 140°
2026-05-05 18:11 39.01395 22.60470 25704 ft 514 kts 140°
2026-05-05 18:11 38.98673 22.63431 25394 ft 511 kts 140°
2026-05-05 18:11 38.95964 22.66376 25085 ft 509 kts 140°
2026-05-05 18:11 38.93271 22.69304 24781 ft 506 kts 140°
2026-05-05 18:12 38.90595 22.72212 24475 ft 502 kts 140°
2026-05-05 18:12 38.87936 22.75095 24178 ft 499 kts 140°
2026-05-05 18:12 38.85291 22.77958 23886 ft 496 kts 140°
2026-05-05 18:12 38.82657 22.80803 23595 ft 494 kts 141°
2026-05-05 18:13 38.79844 22.83313 23231 ft 492 kts 149°
2026-05-05 18:13 38.76938 22.85600 22887 ft 489 kts 149°
2026-05-05 18:13 38.74043 22.87870 22524 ft 486 kts 149°
2026-05-05 18:13 38.71171 22.90120 22054 ft 482 kts 149°
2026-05-05 18:14 38.68318 22.92350 21592 ft 479 kts 149°
2026-05-05 18:14 38.65485 22.94563 21137 ft 475 kts 149°
2026-05-05 18:14 38.62675 22.96753 20685 ft 471 kts 149°
2026-05-05 18:14 38.59889 22.98927 20236 ft 468 kts 149°
2026-05-05 18:15 38.57120 23.01086 19811 ft 464 kts 149°
2026-05-05 18:15 38.54371 23.03228 19370 ft 461 kts 149°
2026-05-05 18:15 38.51637 23.05353 18950 ft 458 kts 149°
2026-05-05 18:15 38.48923 23.07461 18528 ft 455 kts 149°
2026-05-05 18:16 38.46230 23.09556 18072 ft 452 kts 149°
2026-05-05 18:16 38.43558 23.11626 17603 ft 448 kts 149°
2026-05-05 18:16 38.40904 23.13681 17135 ft 444 kts 148°
2026-05-05 18:16 38.38275 23.15717 16678 ft 440 kts 148°
2026-05-05 18:17 38.35667 23.17735 16224 ft 436 kts 148°
2026-05-05 18:17 38.33084 23.19729 15779 ft 432 kts 148°
2026-05-05 18:17 38.30524 23.21702 15288 ft 428 kts 148°
2026-05-05 18:17 38.27991 23.23653 14767 ft 423 kts 148°
2026-05-05 18:18 38.25486 23.25586 14251 ft 419 kts 147°
2026-05-05 18:18 38.23011 23.27500 13718 ft 414 kts 147°
2026-05-05 18:18 38.20557 23.29394 13139 ft 410 kts 147°
2026-05-05 18:18 38.18130 23.31264 12569 ft 406 kts 147°
2026-05-05 18:19 38.15726 23.33111 11998 ft 402 kts 147°
2026-05-05 18:19 38.13347 23.34941 11462 ft 398 kts 147°
2026-05-05 18:19 38.10996 23.36764 10916 ft 394 kts 145°
2026-05-05 18:19 38.08847 23.38872 10389 ft 388 kts 139°
2026-05-05 18:20 38.06764 23.41019 9856 ft 383 kts 139°
2026-05-05 18:20 38.04729 23.43124 9417 ft 367 kts 139°
2026-05-05 18:20 38.02827 23.45093 9122 ft 339 kts 139°
2026-05-05 18:20 38.01085 23.46895 8872 ft 316 kts 139°
2026-05-05 18:21 37.99428 23.48609 8587 ft 302 kts 139°
2026-05-05 18:21 37.97816 23.50278 7992 ft 297 kts 139°
2026-05-05 18:21 37.96227 23.51922 7430 ft 293 kts 139°
2026-05-05 18:21 37.94658 23.53545 6847 ft 290 kts 139°
2026-05-05 18:22 37.93078 23.55178 6250 ft 296 kts 140°
2026-05-05 18:22 37.91467 23.56839 5642 ft 301 kts 140°
2026-05-05 18:22 37.89857 23.58495 5200 ft 293 kts 140°
2026-05-05 18:22 37.88311 23.60088 4778 ft 284 kts 140°
2026-05-05 18:23 37.86785 23.61662 4340 ft 282 kts 140°
2026-05-05 18:23 37.85270 23.63219 3968 ft 279 kts 140°
2026-05-05 18:23 37.83773 23.64757 3585 ft 275 kts 140°
2026-05-05 18:23 37.82299 23.66268 3299 ft 268 kts 141°
2026-05-05 18:24 37.80894 23.67710 3268 ft 251 kts 141°
2026-05-05 18:24 37.79584 23.69051 3275 ft 234 kts 141°
2026-05-05 18:24 37.78366 23.70321 3267 ft 220 kts 135°
2026-05-05 18:24 37.77467 23.71804 3267 ft 209 kts 116°
2026-05-05 18:25 37.76993 23.73509 3276 ft 205 kts 97°
2026-05-05 18:25 37.76916 23.74691 3279 ft 203 kts 85°
2026-05-05 18:25 37.77327 23.76982 3279 ft 199 kts 63°
2026-05-05 18:25 37.78078 23.78426 3279 ft 196 kts 45°
2026-05-05 18:26 37.79113 23.79530 3278 ft 195 kts 35°
2026-05-05 18:26 37.80166 23.80525 3197 ft 183 kts 35°
2026-05-05 18:26 37.81142 23.81449 3000 ft 167 kts 35°
2026-05-05 18:26 37.82018 23.82279 2791 ft 151 kts 35°
2026-05-05 18:27 37.82840 23.83058 2574 ft 146 kts 35°
2026-05-05 18:27 37.83642 23.83819 2390 ft 143 kts 35°
2026-05-05 18:27 37.84445 23.84563 2230 ft 143 kts 34°
2026-05-05 18:27 37.85239 23.85322 2034 ft 143 kts 36°
2026-05-05 18:28 37.86829 23.86842 1664 ft 143 kts 35°
2026-05-05 18:28 37.87625 23.87594 1474 ft 143 kts 36°
2026-05-05 18:28 37.88418 23.88346 1301 ft 142 kts 36°
2026-05-05 18:29 37.89209 23.89094 1092 ft 141 kts 36°
2026-05-05 18:29 37.89990 23.89840 917 ft 140 kts 36°
2026-05-05 18:29 37.90768 23.90579 738 ft 139 kts 36°
2026-05-05 18:29 37.91541 23.91307 566 ft 138 kts 35°
2026-05-05 18:30 37.92310 23.92032 376 ft 137 kts 36°
2026-05-05 18:30 37.93042 23.92731 293 ft 118 kts 38°
2026-05-05 18:30 37.93555 23.93227 292 ft 68 kts 37°
2026-05-05 18:30 37.93800 23.93462 294 ft 34 kts 43°
2026-05-05 18:31 37.93931 23.93697 298 ft 25 kts 64°
2026-05-05 18:31 37.93956 23.93771 298 ft 6 kts 66°
2026-05-05 18:31 37.93973 23.93819 299 ft 9 kts 66°
2026-05-05 18:31 37.94005 23.93908 302 ft 12 kts 63°
2026-05-05 18:32 37.94089 23.94013 301 ft 20 kts 37°
2026-05-05 18:32 37.94212 23.94129 304 ft 24 kts 36°
2026-05-05 18:32 37.94349 23.94259 305 ft 26 kts 37°
2026-05-05 18:32 37.94495 23.94398 303 ft 27 kts 36°
2026-05-05 18:33 37.94627 23.94523 303 ft 20 kts 36°
2026-05-05 18:33 37.94675 23.94636 304 ft 17 kts 111°
2026-05-05 18:33 37.94580 23.94801 301 ft 27 kts 127°
2026-05-05 18:33 37.94463 23.94999 303 ft 29 kts 127°
2026-05-05 18:34 37.94342 23.95202 303 ft 28 kts 127°
2026-05-05 18:34 37.94225 23.95399 301 ft 27 kts 127°
2026-05-05 18:34 37.94139 23.95539 300 ft 14 kts 140°
2026-05-05 18:34 37.94048 23.95516 302 ft 18 kts 217°
2026-05-05 18:35 37.93939 23.95413 301 ft 20 kts 216°
2026-05-05 18:35 37.93873 23.95270 303 ft 20 kts 248°
2026-05-05 18:35 37.93802 23.95152 303 ft 7 kts 225°
2026-05-05 18:35 37.93812 23.95103 300 ft 6 kts 302°
2026-05-05 18:36 37.93832 23.95068 301 ft 4 kts 307°
2026-05-05 18:36 37.93837 23.95058 301 ft 0 kts 307°